JST760 YSSY-YPAD

Flight info

Callsign JST760
Flight time 1h 43m
Altitude 36000
Route TESAT A576 KADOM H44 MAXEM Q60 KAKLU H309 AD
Aircraft A321/M-SDE3FGHIRWYZ/LB1

Departure

Time 2026-04-24 20:41
Airport Sydney Kingsford Smith International Airport (YSSY)

Arrival

Time 2026-04-24 22:25
Airport Adelaide International Airport (YPAD)
Time Latitude Longitude Altitude Speed Heading
2026-04-24 20:16 -33.93525 151.17770 30 ft 0 kts 279°
2026-04-24 20:28 -33.93525 151.17771 30 ft 1 kts 279°
2026-04-24 20:28 -33.93529 151.17800 30 ft 4 kts 277°
2026-04-24 20:28 -33.93529 151.17829 30 ft 4 kts 242°
2026-04-24 20:29 -33.93523 151.17839 30 ft 1 kts 190°
2026-04-24 20:29 -33.93532 151.17837 30 ft 4 kts 190°
2026-04-24 20:29 -33.93556 151.17832 30 ft 4 kts 190°
2026-04-24 20:29 -33.93583 151.17826 30 ft 4 kts 190°
2026-04-24 20:30 -33.93608 151.17821 30 ft 2 kts 190°
2026-04-24 20:30 -33.93609 151.17821 30 ft 0 kts 190°
2026-04-24 20:34 -33.93611 151.17820 30 ft 2 kts 190°
2026-04-24 20:34 -33.93669 151.17805 30 ft 13 kts 198°
2026-04-24 20:35 -33.93747 151.17779 30 ft 11 kts 193°
2026-04-24 20:35 -33.93825 151.17755 30 ft 12 kts 205°
2026-04-24 20:35 -33.93866 151.17666 29 ft 13 kts 254°
2026-04-24 20:35 -33.93893 151.17550 29 ft 15 kts 254°
2026-04-24 20:36 -33.93924 151.17415 27 ft 18 kts 255°
2026-04-24 20:36 -33.93959 151.17270 29 ft 17 kts 246°
2026-04-24 20:36 -33.94061 151.17248 29 ft 17 kts 168°
2026-04-24 20:36 -33.94180 151.17278 28 ft 18 kts 168°
2026-04-24 20:37 -33.94305 151.17311 30 ft 18 kts 167°
2026-04-24 20:37 -33.94433 151.17344 30 ft 19 kts 168°
2026-04-24 20:37 -33.94569 151.17379 30 ft 20 kts 168°
2026-04-24 20:37 -33.94710 151.17415 30 ft 22 kts 168°
2026-04-24 20:38 -33.94861 151.17453 30 ft 23 kts 168°
2026-04-24 20:38 -33.95020 151.17494 30 ft 23 kts 165°
2026-04-24 20:38 -33.95181 151.17537 29 ft 24 kts 169°
2026-04-24 20:38 -33.95349 151.17580 29 ft 25 kts 167°
2026-04-24 20:39 -33.95522 151.17623 30 ft 26 kts 169°
2026-04-24 20:39 -33.95695 151.17667 30 ft 26 kts 168°
2026-04-24 20:39 -33.95876 151.17712 30 ft 27 kts 169°
2026-04-24 20:39 -33.96061 151.17758 30 ft 27 kts 164°
2026-04-24 20:40 -33.96226 151.17809 30 ft 24 kts 167°
2026-04-24 20:40 -33.96388 151.17850 30 ft 23 kts 166°
2026-04-24 20:40 -33.96427 151.17982 30 ft 19 kts 77°
2026-04-24 20:40 -33.96396 151.18054 30 ft 3 kts 351°
2026-04-24 20:41 -33.96294 151.18030 29 ft 46 kts 348°
2026-04-24 20:41 -33.95740 151.17885 29 ft 117 kts 348°
2026-04-24 20:41 -33.94750 151.17628 47 ft 169 kts 347°
2026-04-24 20:41 -33.93619 151.17352 781 ft 164 kts 347°
2026-04-24 20:42 -33.92530 151.16935 1499 ft 165 kts 334°
2026-04-24 20:42 -33.91541 151.16195 2065 ft 174 kts 321°
2026-04-24 20:42 -33.90662 151.15058 2327 ft 197 kts 305°
2026-04-24 20:42 -33.89988 151.13548 2552 ft 219 kts 296°
2026-04-24 20:43 -33.89284 151.11811 2768 ft 244 kts 296°
2026-04-24 20:43 -33.88505 151.09904 3278 ft 258 kts 297°
2026-04-24 20:43 -33.87699 151.07944 3991 ft 264 kts 297°
2026-04-24 20:43 -33.86874 151.05945 4724 ft 269 kts 297°
2026-04-24 20:44 -33.86034 151.03907 5477 ft 273 kts 297°
2026-04-24 20:44 -33.85187 151.01840 6236 ft 276 kts 297°
2026-04-24 20:44 -33.84521 150.99654 6990 ft 280 kts 285°
2026-04-24 20:44 -33.84059 150.97407 7690 ft 282 kts 283°
2026-04-24 20:45 -33.83634 150.95092 8409 ft 285 kts 282°
2026-04-24 20:45 -33.83218 150.92745 9108 ft 288 kts 282°
2026-04-24 20:45 -33.82791 150.90377 9832 ft 291 kts 282°
2026-04-24 20:45 -33.82350 150.87986 10524 ft 294 kts 282°
2026-04-24 20:46 -33.81887 150.85522 10821 ft 312 kts 282°
2026-04-24 20:46 -33.81387 150.82892 10955 ft 334 kts 283°
2026-04-24 20:46 -33.80858 150.80118 11344 ft 344 kts 283°
2026-04-24 20:46 -33.80322 150.77324 11909 ft 348 kts 283°
2026-04-24 20:47 -33.79771 150.74465 12505 ft 353 kts 283°
2026-04-24 20:47 -33.79212 150.71575 13088 ft 357 kts 283°
2026-04-24 20:47 -33.78644 150.68647 13676 ft 361 kts 283°
2026-04-24 20:47 -33.78069 150.65691 14260 ft 365 kts 283°
2026-04-24 20:48 -33.77484 150.62694 14795 ft 369 kts 283°
2026-04-24 20:48 -33.76898 150.59688 15342 ft 372 kts 282°
2026-04-24 20:48 -33.76305 150.56643 15909 ft 374 kts 282°
2026-04-24 20:48 -33.75720 150.53628 16455 ft 377 kts 282°
2026-04-24 20:49 -33.75120 150.50539 17016 ft 380 kts 282°
2026-04-24 20:49 -33.74519 150.47439 17560 ft 383 kts 282°
2026-04-24 20:49 -33.73909 150.44309 18100 ft 386 kts 282°
2026-04-24 20:49 -33.73290 150.41161 18627 ft 389 kts 282°
2026-04-24 20:50 -33.72660 150.37985 19117 ft 391 kts 282°
2026-04-24 20:50 -33.72026 150.34789 19569 ft 394 kts 282°
2026-04-24 20:50 -33.71443 150.31554 20011 ft 397 kts 277°
2026-04-24 20:50 -33.71271 150.28243 20437 ft 398 kts 266°
2026-04-24 20:51 -33.71516 150.24919 20875 ft 400 kts 262°
2026-04-24 20:51 -33.71820 150.21584 21301 ft 403 kts 262°
2026-04-24 20:51 -33.72118 150.18263 21718 ft 406 kts 262°
2026-04-24 20:51 -33.72414 150.14873 22138 ft 409 kts 262°
2026-04-24 20:52 -33.72709 150.11451 22548 ft 412 kts 262°
2026-04-24 20:52 -33.73005 150.08020 22963 ft 414 kts 262°
2026-04-24 20:52 -33.73300 150.04562 23369 ft 417 kts 262°
2026-04-24 20:52 -33.73593 150.01119 23772 ft 420 kts 262°
2026-04-24 20:53 -33.73889 149.97619 24169 ft 422 kts 262°
2026-04-24 20:53 -33.74187 149.94091 24509 ft 425 kts 262°
2026-04-24 20:53 -33.74490 149.90544 24863 ft 427 kts 262°
2026-04-24 20:53 -33.74795 149.86990 25220 ft 428 kts 262°
2026-04-24 20:54 -33.75097 149.83422 25566 ft 430 kts 262°
2026-04-24 20:54 -33.75399 149.79874 25910 ft 432 kts 262°
2026-04-24 20:54 -33.75702 149.76275 26251 ft 434 kts 262°
2026-04-24 20:54 -33.76004 149.72653 26588 ft 436 kts 262°
2026-04-24 20:55 -33.76305 149.69025 26919 ft 438 kts 262°
2026-04-24 20:55 -33.76607 149.65373 27247 ft 440 kts 261°
2026-04-24 20:55 -33.76916 149.61701 27571 ft 441 kts 261°
2026-04-24 20:55 -33.77225 149.58024 27896 ft 443 kts 261°
2026-04-24 20:56 -33.77532 149.54329 28211 ft 445 kts 261°
2026-04-24 20:56 -33.77830 149.50668 28525 ft 447 kts 261°
2026-04-24 20:56 -33.78132 149.46924 28843 ft 449 kts 261°
2026-04-24 20:56 -33.78432 149.43175 29147 ft 451 kts 261°
2026-04-24 20:57 -33.78727 149.39453 29446 ft 453 kts 261°
2026-04-24 20:57 -33.79028 149.35676 29749 ft 455 kts 261°
2026-04-24 20:57 -33.79330 149.31881 30047 ft 456 kts 261°
2026-04-24 20:57 -33.79636 149.28069 30352 ft 458 kts 261°
2026-04-24 20:58 -33.79944 149.24242 30639 ft 460 kts 261°
2026-04-24 20:58 -33.80252 149.20410 30871 ft 461 kts 261°
2026-04-24 20:58 -33.80559 149.16557 31104 ft 462 kts 261°
2026-04-24 20:58 -33.80864 149.12703 31333 ft 463 kts 261°
2026-04-24 20:59 -33.81167 149.08837 31557 ft 464 kts 262°
2026-04-24 20:59 -33.81464 149.05016 31778 ft 465 kts 262°
2026-04-24 20:59 -33.81763 149.01142 32081 ft 463 kts 262°
2026-04-24 20:59 -33.82061 148.97289 32388 ft 462 kts 262°
2026-04-24 21:00 -33.82359 148.93453 32702 ft 460 kts 262°
2026-04-24 21:00 -33.82653 148.89621 33003 ft 459 kts 262°
2026-04-24 21:00 -33.82944 148.85801 33313 ft 457 kts 262°
2026-04-24 21:00 -33.83230 148.82044 33607 ft 456 kts 262°
2026-04-24 21:01 -33.83520 148.78247 33893 ft 454 kts 262°
2026-04-24 21:01 -33.83806 148.74464 34187 ft 453 kts 262°
2026-04-24 21:01 -33.84090 148.70691 34467 ft 452 kts 262°
2026-04-24 21:01 -33.84372 148.66915 34715 ft 451 kts 262°
2026-04-24 21:02 -33.84834 148.63229 34937 ft 447 kts 256°
2026-04-24 21:02 -33.85449 148.59562 35164 ft 447 kts 256°
2026-04-24 21:02 -33.86064 148.55892 35396 ft 446 kts 256°
2026-04-24 21:02 -33.86675 148.52231 35628 ft 445 kts 256°
2026-04-24 21:03 -33.87283 148.48585 35861 ft 444 kts 256°
2026-04-24 21:03 -33.87892 148.44927 36105 ft 443 kts 256°
2026-04-24 21:03 -33.88494 148.41295 36338 ft 443 kts 256°
2026-04-24 21:03 -33.89095 148.37659 36486 ft 443 kts 256°
2026-04-24 21:04 -33.90278 148.30472 36510 ft 439 kts 256°
2026-04-24 21:04 -33.91463 148.23259 36510 ft 438 kts 256°
2026-04-24 21:05 -33.92640 148.16058 36506 ft 438 kts 256°
2026-04-24 21:05 -33.93813 148.08863 36503 ft 437 kts 256°
2026-04-24 21:06 -33.94976 148.01720 36505 ft 437 kts 256°
2026-04-24 21:06 -33.96139 147.94505 36508 ft 438 kts 256°
2026-04-24 21:07 -33.97297 147.87298 36515 ft 438 kts 256°
2026-04-24 21:07 -33.98457 147.80084 36519 ft 438 kts 256°
2026-04-24 21:08 -33.99604 147.72916 36519 ft 438 kts 256°
2026-04-24 21:08 -34.00757 147.65695 36519 ft 438 kts 256°
2026-04-24 21:09 -34.01905 147.58475 36517 ft 438 kts 256°
2026-04-24 21:09 -34.03044 147.51258 36517 ft 438 kts 257°
2026-04-24 21:10 -34.04173 147.44047 36513 ft 438 kts 257°
2026-04-24 21:10 -34.05309 147.36831 36513 ft 438 kts 257°
2026-04-24 21:11 -34.06427 147.29663 36511 ft 437 kts 257°
2026-04-24 21:11 -34.07540 147.22448 36507 ft 437 kts 257°
2026-04-24 21:12 -34.08472 147.16413 36507 ft 437 kts 257°
2026-04-24 21:12 -34.09577 147.09245 36501 ft 437 kts 257°
2026-04-24 21:13 -34.10688 147.02031 36505 ft 436 kts 257°
2026-04-24 21:13 -34.11793 146.94860 36497 ft 436 kts 257°
2026-04-24 21:14 -34.12897 146.87612 36496 ft 436 kts 257°
2026-04-24 21:14 -34.13990 146.80453 36502 ft 436 kts 257°
2026-04-24 21:15 -34.15078 146.73245 36497 ft 436 kts 257°
2026-04-24 21:15 -34.16154 146.66081 36491 ft 435 kts 257°
2026-04-24 21:16 -34.17235 146.58883 36496 ft 435 kts 257°
2026-04-24 21:16 -34.18314 146.51676 36494 ft 435 kts 257°
2026-04-24 21:17 -34.19376 146.44489 36492 ft 435 kts 257°
2026-04-24 21:17 -34.20430 146.37321 36489 ft 435 kts 257°
2026-04-24 21:18 -34.21496 146.30123 36491 ft 435 kts 257°
2026-04-24 21:18 -34.22559 146.22917 36488 ft 434 kts 257°
2026-04-24 21:19 -34.23616 146.15724 36485 ft 434 kts 257°
2026-04-24 21:19 -34.24660 146.08540 36483 ft 434 kts 258°
2026-04-24 21:20 -34.26080 145.97773 36477 ft 434 kts 259°
2026-04-24 21:21 -34.26942 145.90545 36474 ft 434 kts 259°
2026-04-24 21:21 -34.27814 145.83313 36476 ft 434 kts 259°
2026-04-24 21:22 -34.28689 145.76135 36477 ft 433 kts 259°
2026-04-24 21:22 -34.29569 145.68917 36472 ft 433 kts 259°
2026-04-24 21:23 -34.30449 145.61694 36472 ft 433 kts 259°
2026-04-24 21:23 -34.31322 145.54532 36470 ft 433 kts 259°
2026-04-24 21:24 -34.32189 145.47324 36471 ft 432 kts 259°
2026-04-24 21:24 -34.33044 145.40119 36464 ft 432 kts 259°
2026-04-24 21:25 -34.33892 145.32911 36467 ft 432 kts 260°
2026-04-24 21:25 -34.34735 145.25752 36462 ft 432 kts 260°
2026-04-24 21:26 -34.35584 145.18546 36460 ft 431 kts 260°
2026-04-24 21:26 -34.36429 145.11348 36458 ft 431 kts 260°
2026-04-24 21:27 -34.37260 145.04197 36459 ft 431 kts 260°
2026-04-24 21:27 -34.38091 144.97006 36456 ft 431 kts 260°
2026-04-24 21:28 -34.38922 144.89826 36456 ft 430 kts 260°
2026-04-24 21:28 -34.39750 144.82635 36455 ft 430 kts 260°
2026-04-24 21:29 -34.40561 144.75502 36451 ft 430 kts 260°
2026-04-24 21:29 -34.41369 144.68312 36448 ft 430 kts 260°
2026-04-24 21:30 -34.42174 144.61173 36449 ft 429 kts 261°
2026-04-24 21:30 -34.42977 144.53993 36449 ft 429 kts 261°
2026-04-24 21:31 -34.43767 144.46869 36449 ft 429 kts 261°
2026-04-24 21:31 -34.44559 144.39708 36446 ft 428 kts 261°
2026-04-24 21:32 -34.45351 144.32556 36445 ft 428 kts 261°
2026-04-24 21:32 -34.46131 144.25464 36447 ft 427 kts 261°
2026-04-24 21:33 -34.46910 144.18309 36444 ft 427 kts 261°
2026-04-24 21:33 -34.47693 144.11172 36443 ft 427 kts 261°
2026-04-24 21:34 -34.48462 144.04032 36441 ft 427 kts 261°
2026-04-24 21:34 -34.49227 143.96887 36439 ft 427 kts 261°
2026-04-24 21:35 -34.49986 143.89798 36437 ft 426 kts 261°
2026-04-24 21:35 -34.50743 143.82659 36435 ft 426 kts 261°
2026-04-24 21:36 -34.51490 143.75525 36433 ft 426 kts 261°
2026-04-24 21:36 -34.52234 143.68444 36433 ft 426 kts 261°
2026-04-24 21:37 -34.52975 143.61321 36431 ft 425 kts 261°
2026-04-24 21:37 -34.53714 143.54199 36425 ft 425 kts 261°
2026-04-24 21:38 -34.54450 143.47087 36426 ft 425 kts 262°
2026-04-24 21:38 -34.55166 143.40010 36425 ft 425 kts 262°
2026-04-24 21:39 -34.55886 143.32887 36424 ft 425 kts 262°
2026-04-24 21:39 -34.56609 143.25755 36419 ft 425 kts 262°
2026-04-24 21:40 -34.57330 143.18681 36420 ft 425 kts 262°
2026-04-24 21:40 -34.58047 143.11553 36418 ft 424 kts 262°
2026-04-24 21:41 -34.58753 143.04476 36417 ft 424 kts 262°
2026-04-24 21:41 -34.59453 142.97344 36417 ft 424 kts 262°
2026-04-24 21:42 -34.60152 142.90233 36410 ft 424 kts 262°
2026-04-24 21:42 -34.60845 142.83152 36408 ft 424 kts 262°
2026-04-24 21:43 -34.61536 142.76041 36408 ft 423 kts 262°
2026-04-24 21:43 -34.62215 142.68977 36402 ft 423 kts 263°
2026-04-24 21:44 -34.62888 142.61868 36399 ft 423 kts 263°
2026-04-24 21:44 -34.63562 142.54775 36401 ft 423 kts 263°
2026-04-24 21:45 -34.64046 142.47647 36399 ft 423 kts 265°
2026-04-24 21:45 -34.64392 142.40553 36397 ft 423 kts 266°
2026-04-24 21:46 -34.64753 142.33411 36395 ft 423 kts 265°
2026-04-24 21:46 -34.65150 142.26289 36397 ft 422 kts 265°
2026-04-24 21:47 -34.65556 142.19161 36397 ft 422 kts 265°
2026-04-24 21:47 -34.65948 142.12081 36392 ft 422 kts 265°
2026-04-24 21:48 -34.66328 142.04953 36392 ft 422 kts 266°
2026-04-24 21:48 -34.66703 141.97838 36386 ft 422 kts 266°
2026-04-24 21:49 -34.67075 141.90770 36382 ft 422 kts 266°
2026-04-24 21:49 -34.67448 141.83647 36384 ft 421 kts 266°
2026-04-24 21:50 -34.67822 141.76547 36379 ft 421 kts 266°
2026-04-24 21:50 -34.68184 141.69487 36378 ft 421 kts 266°
2026-04-24 21:51 -34.68541 141.62388 36378 ft 421 kts 266°
2026-04-24 21:51 -34.68895 141.55287 36374 ft 420 kts 266°
2026-04-24 21:52 -34.69250 141.48201 36372 ft 420 kts 266°
2026-04-24 21:52 -34.69603 141.41141 36373 ft 420 kts 266°
2026-04-24 21:53 -34.69942 141.34054 36372 ft 419 kts 266°
2026-04-24 21:53 -34.70276 141.26963 36368 ft 419 kts 266°
2026-04-24 21:54 -34.70607 141.19929 36370 ft 419 kts 266°
2026-04-24 21:54 -34.70931 141.12865 36366 ft 418 kts 267°
2026-04-24 21:55 -34.71258 141.05805 36368 ft 418 kts 267°
2026-04-24 21:55 -34.71581 140.98744 36366 ft 418 kts 267°
2026-04-24 21:56 -34.71897 140.91698 36367 ft 417 kts 267°
2026-04-24 21:56 -34.72209 140.84687 36363 ft 417 kts 267°
2026-04-24 21:57 -34.72517 140.77636 36365 ft 417 kts 267°
2026-04-24 21:57 -34.72819 140.70604 36360 ft 416 kts 267°
2026-04-24 21:58 -34.73115 140.63575 36112 ft 415 kts 267°
2026-04-24 21:58 -34.73262 140.60060 35860 ft 415 kts 267°
2026-04-24 21:58 -34.73406 140.56555 35617 ft 415 kts 267°
2026-04-24 21:58 -34.73549 140.53103 35179 ft 412 kts 267°
2026-04-24 21:59 -34.73696 140.49627 34675 ft 411 kts 268°
2026-04-24 21:59 -34.73840 140.46164 34178 ft 408 kts 268°
2026-04-24 21:59 -34.73980 140.42719 33677 ft 405 kts 268°
2026-04-24 21:59 -34.74116 140.39316 33204 ft 401 kts 268°
2026-04-24 22:00 -34.74250 140.35987 32727 ft 397 kts 268°
2026-04-24 22:00 -34.74381 140.32643 32253 ft 393 kts 268°
2026-04-24 22:00 -34.74509 140.29331 31786 ft 390 kts 268°
2026-04-24 22:00 -34.74593 140.27157 31478 ft 388 kts 268°
2026-04-24 22:01 -34.74721 140.23888 31018 ft 385 kts 268°
2026-04-24 22:01 -34.74847 140.20645 30564 ft 382 kts 267°
2026-04-24 22:01 -34.74973 140.17432 30069 ft 379 kts 267°
2026-04-24 22:01 -34.75097 140.14243 29633 ft 374 kts 268°
2026-04-24 22:02 -34.75254 140.10096 29070 ft 367 kts 268°
2026-04-24 22:02 -34.75332 140.08014 28790 ft 364 kts 268°
2026-04-24 22:02 -34.75449 140.04948 28390 ft 359 kts 268°
2026-04-24 22:02 -34.75562 140.01934 27989 ft 355 kts 268°
2026-04-24 22:03 -34.75672 139.98958 27602 ft 350 kts 268°
2026-04-24 22:03 -34.75777 139.96058 27236 ft 346 kts 268°
2026-04-24 22:03 -34.75884 139.93141 26859 ft 341 kts 268°
2026-04-24 22:03 -34.75989 139.90282 26488 ft 336 kts 268°
2026-04-24 22:04 -34.76090 139.87460 26123 ft 331 kts 268°
2026-04-24 22:04 -34.76187 139.84677 25759 ft 327 kts 268°
2026-04-24 22:04 -34.76284 139.81923 25388 ft 324 kts 268°
2026-04-24 22:04 -34.76380 139.79203 25020 ft 321 kts 268°
2026-04-24 22:05 -34.76475 139.76497 24651 ft 319 kts 268°
2026-04-24 22:05 -34.76570 139.73810 24278 ft 317 kts 269°
2026-04-24 22:05 -34.76663 139.71177 23910 ft 315 kts 269°
2026-04-24 22:05 -34.76755 139.68518 23490 ft 313 kts 269°
2026-04-24 22:06 -34.76844 139.65878 23092 ft 311 kts 269°
2026-04-24 22:06 -34.76931 139.63248 22715 ft 310 kts 269°
2026-04-24 22:06 -34.77017 139.60631 22329 ft 309 kts 269°
2026-04-24 22:06 -34.77103 139.58014 21942 ft 308 kts 269°
2026-04-24 22:07 -34.77190 139.55445 21569 ft 308 kts 269°
2026-04-24 22:07 -34.77277 139.52850 21187 ft 307 kts 269°
2026-04-24 22:07 -34.77361 139.50249 20804 ft 307 kts 269°
2026-04-24 22:07 -34.77445 139.47661 20426 ft 306 kts 269°
2026-04-24 22:08 -34.77530 139.45074 20045 ft 305 kts 269°
2026-04-24 22:08 -34.77666 139.42501 19667 ft 306 kts 263°
2026-04-24 22:08 -34.78168 139.39981 19287 ft 308 kts 252°
2026-04-24 22:08 -34.79033 139.37581 18900 ft 309 kts 248°
2026-04-24 22:09 -34.79933 139.35243 18502 ft 308 kts 248°
2026-04-24 22:09 -34.80838 139.32880 18090 ft 307 kts 248°
2026-04-24 22:09 -34.81737 139.30525 17711 ft 306 kts 248°
2026-04-24 22:09 -34.82637 139.28174 17329 ft 304 kts 248°
2026-04-24 22:10 -34.83526 139.25845 16953 ft 303 kts 248°
2026-04-24 22:10 -34.84397 139.23554 16584 ft 301 kts 248°
2026-04-24 22:10 -34.85283 139.21216 16194 ft 299 kts 248°
2026-04-24 22:10 -34.86143 139.18943 15833 ft 298 kts 248°
2026-04-24 22:11 -34.87008 139.16654 15469 ft 296 kts 248°
2026-04-24 22:11 -34.87868 139.14372 15099 ft 295 kts 248°
2026-04-24 22:11 -34.88722 139.12112 14738 ft 293 kts 248°
2026-04-24 22:11 -34.89579 139.09848 14373 ft 292 kts 248°
2026-04-24 22:12 -34.90414 139.07636 14010 ft 290 kts 248°
2026-04-24 22:12 -34.91255 139.05412 13624 ft 288 kts 248°
2026-04-24 22:12 -34.92091 139.03195 13265 ft 286 kts 248°
2026-04-24 22:12 -34.92923 139.00993 12929 ft 285 kts 248°
2026-04-24 22:13 -34.93749 138.98804 12566 ft 283 kts 248°
2026-04-24 22:13 -34.94570 138.96624 12234 ft 282 kts 248°
2026-04-24 22:13 -34.95383 138.94459 11882 ft 280 kts 248°
2026-04-24 22:13 -34.96196 138.92302 11532 ft 279 kts 248°
2026-04-24 22:14 -34.97003 138.90161 11194 ft 277 kts 248°
2026-04-24 22:14 -34.97795 138.88057 10859 ft 275 kts 248°
2026-04-24 22:14 -34.98594 138.85933 10475 ft 276 kts 248°
2026-04-24 22:14 -34.99407 138.83767 9957 ft 281 kts 248°
2026-04-24 22:15 -35.00220 138.81602 9567 ft 279 kts 248°
2026-04-24 22:15 -35.01024 138.79459 9222 ft 277 kts 248°
2026-04-24 22:15 -35.01810 138.77357 8894 ft 274 kts 248°
2026-04-24 22:15 -35.02606 138.75232 8549 ft 270 kts 248°
2026-04-24 22:16 -35.03385 138.73150 8216 ft 268 kts 249°
2026-04-24 22:16 -35.04152 138.71096 7890 ft 265 kts 249°
2026-04-24 22:16 -35.04904 138.69083 7565 ft 263 kts 249°
2026-04-24 22:16 -35.05659 138.67061 7249 ft 261 kts 249°
2026-04-24 22:17 -35.06410 138.65043 6927 ft 260 kts 250°
2026-04-24 22:17 -35.07152 138.63040 6615 ft 258 kts 250°
2026-04-24 22:17 -35.07891 138.61053 6363 ft 254 kts 250°
2026-04-24 22:17 -35.08615 138.59111 6234 ft 250 kts 250°
2026-04-24 22:18 -35.09325 138.57206 6108 ft 249 kts 250°
2026-04-24 22:18 -35.10049 138.55252 5619 ft 257 kts 250°
2026-04-24 22:18 -35.10787 138.53263 5183 ft 258 kts 250°
2026-04-24 22:18 -35.11512 138.51327 4935 ft 239 kts 250°
2026-04-24 22:19 -35.12157 138.49523 4808 ft 227 kts 258°
2026-04-24 22:19 -35.12394 138.47711 4693 ft 209 kts 275°
2026-04-24 22:19 -35.12202 138.45966 4217 ft 209 kts 287°
2026-04-24 22:19 -35.11725 138.44305 3773 ft 206 kts 303°
2026-04-24 22:20 -35.10794 138.43003 3370 ft 203 kts 323°
2026-04-24 22:20 -35.09574 138.42226 3202 ft 191 kts 337°
2026-04-24 22:20 -35.08342 138.41696 3146 ft 187 kts 348°
2026-04-24 22:20 -35.07040 138.41713 2976 ft 188 kts
2026-04-24 22:21 -35.05800 138.42000 2710 ft 179 kts
2026-04-24 22:21 -35.04601 138.42270 2447 ft 171 kts
2026-04-24 22:21 -35.03469 138.42552 2220 ft 161 kts 11°
2026-04-24 22:21 -35.02456 138.43032 2004 ft 152 kts 21°
2026-04-24 22:22 -35.01577 138.43691 1802 ft 144 kts 30°
2026-04-24 22:22 -35.00851 138.44475 1624 ft 137 kts 40°
2026-04-24 22:22 -35.00245 138.45341 1430 ft 134 kts 44°
2026-04-24 22:22 -34.99648 138.46208 1252 ft 133 kts 44°
2026-04-24 22:23 -34.99056 138.47066 1080 ft 133 kts 44°
2026-04-24 22:23 -34.98462 138.47925 904 ft 132 kts 46°
2026-04-24 22:23 -34.97871 138.48784 729 ft 133 kts 47°
2026-04-24 22:23 -34.97291 138.49646 500 ft 129 kts 47°
2026-04-24 22:24 -34.96708 138.50493 332 ft 134 kts 47°
2026-04-24 22:24 -34.96112 138.51345 164 ft 130 kts 47°
2026-04-24 22:24 -34.95530 138.52192 31 ft 125 kts 47°
2026-04-24 22:24 -34.95051 138.52885 24 ft 84 kts 50°
2026-04-24 22:25 -34.94754 138.53315 23 ft 54 kts 49°
2026-04-24 22:25 -34.94608 138.53512 22 ft 11 kts 15°
2026-04-24 22:25 -34.94540 138.53467 21 ft 12 kts 309°
2026-04-24 22:25 -34.94477 138.53405 23 ft 11 kts 360°
2026-04-24 22:26 -34.94419 138.53469 24 ft 12 kts 46°
2026-04-24 22:26 -34.94358 138.53555 23 ft 14 kts 50°
2026-04-24 22:26 -34.94293 138.53650 24 ft 14 kts 41°
2026-04-24 22:26 -34.94198 138.53645 25 ft 14 kts
2026-04-24 22:27 -34.94144 138.53683 26 ft 4 kts 351°
2026-04-24 22:27 -34.94121 138.53666 27 ft 4 kts 323°
2026-04-24 22:27 -34.94095 138.53639 27 ft 6 kts 319°
2026-04-24 22:27 -34.94082 138.53625 27 ft 0 kts 320°